Inquirer Daily News

Weather

Get conditions and forecasts for any City, State, ZIP code or Country:  
Northeast Philadelphia, PA
on Thursday, February 21, 2013

Thursday
Previous Day Next Day
Daily Summary
 ActualAverage (KTTN)Record (KTTN)
Temperature
Mean Temperature °F 35°F  
Max Temperature 35°F 44°F 70°F (1930)
Min Temperature 24°F 27°F 6°F (1893)
Degree Days
Heating Degree Days 36 30  
Month to date heating degree days 665  
Since 1 July heating degree days 3611  
Cooling Degree Days 0 0  
Month to date cooling degree days 0  
Year to date cooling degree days 0  
Moisture
Dew Point 12°F   
Average Humidity 50    
Maximum Humidity 63    
Minimum Humidity 42    
Precipitation
Precipitation 0.00 in 0.08 in 1.44 in (1951)
Month to date precipitation 1.66  
Year to date precipitation 4.82  
Wind
Wind Speed 14 mph   
Max Wind Speed 21 mph   
Max Gust Speed 30 mph   
Visibility 10 miles   
Events     

Key: T is trace of precipitation, MM is missing value
Source: NWS Daily Summary
Time(EST)TemperatureDew PointHumidity Pressure Visibility Wind DirectionWind SpeedGust SpeedPrecipitationEvents Conditions
12:54 AM 24.1°F 8.1°F 51% 30.09 in 10.0 miles WNW 11.5 mph - N/A   Clear
1:54 AM 24.1°F 10.0°F 55% 30.08 in 10.0 miles WNW 9.2 mph 19.6 mph N/A   Overcast
2:54 AM 24.1°F 9.0°F 53% 30.06 in 10.0 miles WNW 11.5 mph 20.7 mph N/A   Overcast
3:54 AM 25.0°F 10.0°F 53% 30.08 in 10.0 miles WNW 12.7 mph - N/A   Overcast
4:54 AM 25.0°F 10.9°F 55% 30.07 in 10.0 miles WNW 20.7 mph 26.5 mph N/A   Overcast
5:54 AM 25.0°F 10.9°F 55% 30.09 in 10.0 miles NW 13.8 mph 23.0 mph N/A   Overcast
6:54 AM 25.0°F 10.9°F 55% 30.10 in 10.0 miles WNW 9.2 mph - N/A   Overcast
7:54 AM 26.1°F 10.0°F 51% 30.11 in 10.0 miles WNW 13.8 mph 18.4 mph N/A   Overcast
8:54 AM 27.0°F 10.9°F 51% 30.12 in 10.0 miles WNW 19.6 mph 26.5 mph N/A   Overcast
9:54 AM 28.0°F 12.0°F 51% 30.14 in 10.0 miles WNW 13.8 mph 27.6 mph N/A   Overcast
10:54 AM 30.0°F 12.0°F 47% 30.15 in 10.0 miles NW 17.3 mph 28.8 mph N/A   Overcast
11:54 AM 32.0°F 12.0°F 44% 30.12 in 10.0 miles WNW 17.3 mph 29.9 mph N/A   Mostly Cloudy
12:54 PM 33.1°F 12.0°F 42% 30.10 in 10.0 miles WNW 17.3 mph 21.9 mph N/A   Partly Cloudy
1:54 PM 35.1°F 14.0°F 42% 30.10 in 10.0 miles NW 16.1 mph 26.5 mph N/A   Clear
2:54 PM 35.1°F 14.0°F 42% 30.10 in 10.0 miles WNW 18.4 mph 29.9 mph N/A   Partly Cloudy
3:54 PM 35.1°F 14.0°F 42% 30.12 in 10.0 miles NW 15.0 mph 26.5 mph N/A   Clear
4:54 PM 35.1°F 14.0°F 42% 30.14 in 10.0 miles NW 15.0 mph 20.7 mph N/A   Clear
5:54 PM 34.0°F 14.0°F 44% 30.15 in 10.0 miles NNW 8.1 mph - N/A   Clear
6:54 PM 32.0°F 14.0°F 48% 30.23 in 10.0 miles NNW 10.4 mph 17.3 mph N/A   Clear
7:54 PM 30.9°F 15.1°F 52% 30.28 in 10.0 miles NNW 17.3 mph 23.0 mph N/A   Clear
8:54 PM 30.0°F 15.1°F 54% 30.27 in 10.0 miles NNW 18.4 mph 25.3 mph N/A   Clear
9:54 PM 28.0°F 15.1°F 58% 30.29 in 10.0 miles North 16.1 mph - N/A   Clear
10:54 PM 26.1°F 14.0°F 60% 30.32 in 10.0 miles North 13.8 mph - N/A   Clear
11:54 PM 25.0°F 14.0°F 63% 30.33 in 10.0 miles NNW 9.2 mph - N/A   Clear
Astronomy
Sunrise:06:44 AM (EST) Moon Rise:01:55 PM (EST)2/21
Sunset:05:43 PM (EST) Moon Set:03:47 AM (EST)2/21
Moon Phase
Feb. 21 Feb. 25 Mar. 04 Mar. 11 Mar. 19

Copyright © 2014 The Weather Underground, Inc.